Location: Casteau
(50.5142°N, 4.0161°E)
Time: 02:07:00
(UTC+00:00)

Explorer 11/Cluster Stage 4 - Pass Details

Date: 08 August 2021
Orbit: 467 x 1257 km, 28.8° (Epoch: 18 September)

Event Time Altitude Azimuth Distance (km) Brightness Sun altitude
Rises 08:31:52 0° 234° (SW) 3,829 9.9 37.6°
Reaches altitude 10° 08:36:32 10° 207° (SSW) 3,031 9.7 38.3°
Maximum altitude 08:39:22 12° 185° (S) 2,925 9.8 38.7°
Drops below altitude 10° 08:42:18 10° 163° (SSE) 3,164 10.3 39.1°
Sets 08:47:27 0° 137° (SE) 4,187 11.1 39.9°
